• In Lithuania
  • List of Countries
  • For 7 days
  • Water Temperature
  • Satellite Maps
  • Weather Map
  • Weather Widgets
  • user-avatar
    Login

    Hourly Weather Stefania

    Today, 19 September, Wednesday

    Time Temperature Precipitation Wind Pressure Humidity
    00:00 +20°C° 0 mm 4 mps 754 mmHg 68%
    01:00 +19°C° 0 mm 3 mps 754 mmHg 69%
    02:00 +19°C° 0 mm 4 mps 754 mmHg 69%
    03:00 +19°C° 0 mm 4 mps 754 mmHg 68%
    04:00 +18°C° 0 mm 4 mps 754 mmHg 68%
    05:00 +18°C° 0 mm 4 mps 754 mmHg 67%
    06:00 +19°C° 0 mm 4 mps 754 mmHg 66%
    07:00 +19°C° 0 mm 4 mps 754 mmHg 63%
    08:00 +21°C° 0 mm 4 mps 754 mmHg 59%
    09:00 +24°C° 0 mm 3 mps 755 mmHg 55%
    10:00 +26°C° 0 mm 3 mps 755 mmHg 51%
    11:00 +27°C° 0 mm 3 mps 755 mmHg 48%
    12:00 +28°C° 0 mm 3 mps 755 mmHg 45%
    13:00 +30°C° 0 mm 3 mps 755 mmHg 42%
    14:00 +30°C° 0 mm 3 mps 755 mmHg 43%
    15:00 +30°C° 0 mm 3 mps 755 mmHg 44%
    16:00 +29°C° 0 mm 3 mps 755 mmHg 45%
    17:00 +28°C° 0 mm 2 mps 755 mmHg 50%
    18:00 +26°C° 0 mm 2 mps 755 mmHg 55%
    19:00 +24°C° 0 mm 2 mps 755 mmHg 60%
    20:00 +24°C° 0 mm 2 mps 755 mmHg 61%
    21:00 +23°C° 0 mm 2 mps 755 mmHg 63%
    22:00 +22°C° 0 mm 1 mps 755 mmHg 65%
    23:00 +21°C° 0 mm 2 mps 755 mmHg 66%

    Tomorrow, 20 September, Thursday

    Time Temperature Precipitation Wind Pressure Humidity
    00:00 +21°C° 0 mm 2 mps 755 mmHg 67%
    01:00 +20°C° 0 mm 2 mps 755 mmHg 69%
    02:00 +20°C° 0 mm 2 mps 755 mmHg 70%
    03:00 +20°C° 0 mm 2 mps 755 mmHg 72%
    04:00 +19°C° 0 mm 2 mps 755 mmHg 73%
    05:00 +20°C° 0 mm 2 mps 755 mmHg 73%
    06:00 +20°C° 0 mm 2 mps 756 mmHg 72%
    07:00 +20°C° 0 mm 2 mps 756 mmHg 71%
    08:00 +22°C° 0 mm 3 mps 756 mmHg 65%
    09:00 +25°C° 0 mm 3 mps 756 mmHg 58%
    10:00 +27°C° 0 mm 3 mps 756 mmHg 52%
    11:00 +28°C° 0 mm 3 mps 756 mmHg 49%
    12:00 +29°C° 0 mm 3 mps 755 mmHg 45%
    13:00 +30°C° 0 mm 3 mps 755 mmHg 42%
    14:00 +30°C° 0 mm 3 mps 755 mmHg 43%
    15:00 +30°C° 0 mm 3 mps 755 mmHg 43%
    16:00 +30°C° 0 mm 3 mps 754 mmHg 43%
    17:00 +28°C° 0 mm 2 mps 754 mmHg 48%
    18:00 +26°C° 0 mm 2 mps 754 mmHg 52%
    19:00 +25°C° 0 mm 2 mps 754 mmHg 57%
    20:00 +24°C° 0 mm 2 mps 754 mmHg 58%
    21:00 +22°C° 0 mm 3 mps 754 mmHg 60%
    22:00 +22°C° 0 mm 3 mps 754 mmHg 61%
    23:00 +21°C° 0 mm 3 mps 754 mmHg 62%

    Day after tomorrow, 21 September, Friday

    Time Temperature Precipitation Wind Pressure Humidity
    00:00 +21°C° 0 mm 3 mps 754 mmHg 62%
    01:00 +20°C° 0 mm 3 mps 754 mmHg 62%
    02:00 +20°C° 0 mm 3 mps 753 mmHg 63%
    03:00 +19°C° 0 mm 3 mps 753 mmHg 63%
    04:00 +19°C° 0 mm 3 mps 753 mmHg 63%
    05:00 +19°C° 0 mm 4 mps 753 mmHg 63%
    06:00 +19°C° 0 mm 4 mps 752 mmHg 64%
    07:00 +20°C° 0 mm 4 mps 752 mmHg 64%
    08:00 +22°C° 0 mm 5 mps 752 mmHg 59%
    09:00 +25°C° 0 mm 5 mps 751 mmHg 54%
    10:00 +27°C° 0 mm 6 mps 751 mmHg 48%
    11:00 +28°C° 0 mm 6 mps 750 mmHg 45%
    12:00 +28°C° 0 mm 7 mps 750 mmHg 42%
    13:00 +29°C° 0 mm 7 mps 749 mmHg 39%
    14:00 +29°C° 0 mm 7 mps 749 mmHg 40%
    15:00 +29°C° 0 mm 6 mps 748 mmHg 41%
    16:00 +29°C° 0 mm 6 mps 747 mmHg 42%
    17:00 +28°C° 0 mm 6 mps 748 mmHg 45%
    18:00 +27°C° 0 mm 6 mps 748 mmHg 48%
    19:00 +24°C° 0 mm 6 mps 748 mmHg 51%
    20:00 +22°C° 0.1 mm 7 mps 749 mmHg 56%
    21:00 +20°C° 0.1 mm 7 mps 750 mmHg 62%
    22:00 +16°C° 0.1 mm 8 mps 751 mmHg 67%
    23:00 +15°C° 0 mm 6 mps 751 mmHg 66%

    22 September, Saturday

    Time Temperature Precipitation Wind Pressure Humidity
    00:00 +15°C° 0 mm 5 mps 752 mmHg 64%
    01:00 +14°C° 0 mm 3 mps 752 mmHg 63%
    02:00 +14°C° 0 mm 4 mps 753 mmHg 61%
    03:00 +14°C° 0 mm 4 mps 753 mmHg 60%
    04:00 +14°C° 0 mm 4 mps 754 mmHg 58%
    05:00 +14°C° 0 mm 4 mps 754 mmHg 55%
    06:00 +14°C° 0 mm 5 mps 754 mmHg 53%
    07:00 +14°C° 0 mm 5 mps 754 mmHg 50%
    08:00 +15°C° 0 mm 6 mps 754 mmHg 48%
    09:00 +16°C° 0 mm 6 mps 755 mmHg 46%
    10:00 +16°C° 0 mm 7 mps 755 mmHg 44%
    11:00 +17°C° 0 mm 7 mps 755 mmHg 43%
    12:00 +17°C° 0 mm 7 mps 754 mmHg 41%
    13:00 +18°C° 0 mm 7 mps 754 mmHg 39%
    14:00 +19°C° 0 mm 6 mps 754 mmHg 39%
    15:00 +17°C° 0 mm 6 mps 754 mmHg 40%
    16:00 +17°C° 0 mm 6 mps 754 mmHg 40%
    17:00 +17°C° 0 mm 5 mps 754 mmHg 41%
    18:00 +17°C° 0 mm 4 mps 754 mmHg 41%
    19:00 +17°C° 0 mm 4 mps 754 mmHg 42%
    20:00 +15°C° 0 mm 4 mps 755 mmHg 45%
    21:00 +14°C° 0 mm 4 mps 755 mmHg 49%
    22:00 +13°C° 0 mm 4 mps 755 mmHg 53%
    23:00 +12°C° 0 mm 4 mps 755 mmHg 55%

    23 September, Sunday

    Time Temperature Precipitation Wind Pressure Humidity
    00:00 +12°C° 0 mm 4 mps 755 mmHg 57%
    01:00 +11°C° 0 mm 4 mps 755 mmHg 59%
    02:00 +11°C° 0 mm 4 mps 755 mmHg 62%
    03:00 +10°C° 0 mm 4 mps 755 mmHg 64%
    04:00 +10°C° 0 mm 4 mps 755 mmHg 67%
    05:00 +10°C° 0 mm 4 mps 755 mmHg 67%
    06:00 +10°C° 0 mm 4 mps 755 mmHg 67%
    07:00 +10°C° 0 mm 5 mps 755 mmHg 67%
    08:00 +12°C° 0 mm 5 mps 755 mmHg 60%
    09:00 +13°C° 0 mm 5 mps 755 mmHg 54%
    10:00 +15°C° 0 mm 6 mps 755 mmHg 48%
    11:00 +16°C° 0 mm 6 mps 754 mmHg 46%
    12:00 +16°C° 0 mm 5 mps 754 mmHg 43%
    13:00 +17°C° 0 mm 5 mps 753 mmHg 41%
    14:00 +17°C° 0 mm 5 mps 752 mmHg 43%
    15:00 +18°C° 0 mm 4 mps 751 mmHg 44%
    16:00 +18°C° 0 mm 4 mps 750 mmHg 45%
    17:00 +17°C° 0.3 mm 4 mps 749 mmHg 52%
    18:00 +15°C° 0.3 mm 4 mps 748 mmHg 59%
    19:00 +14°C° 0.3 mm 4 mps 747 mmHg 66%
    20:00 +14°C° 3.1 mm 5 mps 746 mmHg 73%
    21:00 +14°C° 3.1 mm 6 mps 745 mmHg 80%
    22:00 +14°C° 3.1 mm 7 mps 743 mmHg 87%
    23:00 +14°C° 3.2 mm 7 mps 741 mmHg 86%

    24 September, Monday

    Time Temperature Precipitation Wind Pressure Humidity
    00:00 +15°C° 3.2 mm 7 mps 740 mmHg 84%
    01:00 +15°C° 3.2 mm 6 mps 738 mmHg 83%
    02:00 +16°C° 3.6 mm 8 mps 737 mmHg 84%
    03:00 +16°C° 3.6 mm 9 mps 736 mmHg 85%
    04:00 +17°C° 3.6 mm 11 mps 735 mmHg 85%
    05:00 +15°C° 0.2 mm 9 mps 734 mmHg 81%
    06:00 +13°C° 0.2 mm 8 mps 734 mmHg 77%
    07:00 +12°C° 0.2 mm 7 mps 733 mmHg 73%
    08:00 +13°C° 0 mm 8 mps 733 mmHg 74%
    09:00 +13°C° 0 mm 8 mps 733 mmHg 75%
    10:00 +13°C° 0 mm 9 mps 734 mmHg 76%
    11:00 +12°C° 0.7 mm 12 mps 735 mmHg 76%
    12:00 +10°C° 0.7 mm 14 mps 736 mmHg 76%
    13:00 +10°C° 0.7 mm 17 mps 737 mmHg 77%
    14:00 +9°C° 0.6 mm 16 mps 738 mmHg 76%
    15:00 +9°C° 0.6 mm 15 mps 740 mmHg 75%
    16:00 +9°C° 0.6 mm 14 mps 742 mmHg 74%
    17:00 +9°C° 0.2 mm 14 mps 743 mmHg 75%
    18:00 +9°C° 0.2 mm 13 mps 745 mmHg 76%
    19:00 +8°C° 0.2 mm 13 mps 746 mmHg 77%
    20:00 +8°C° 0.4 mm 12 mps 747 mmHg 75%
    21:00 +8°C° 0.4 mm 11 mps 749 mmHg 74%
    22:00 +8°C° 0.4 mm 10 mps 750 mmHg 72%
    23:00 +7°C° 0 mm 9 mps 751 mmHg 73%
    Show more